Geostationary
NORAD ID: 38741
Int'l Code: 2012-043B
Perigee: 35,785.7 km
Apogee: 35,802.3 km
Inclination: 0.0 °
Period: 1,436.1 minutes
Semi major axis: 42164 km
Launch date: August 2, 2012
Source: United Kingdom (UK)
Comments: HYLAS 2, owned by Avanti Communications of London, carries 24 Ka-band transponders and is designed to provide broadband links to African customers. Hylas 2 is likely to be operated at 31 degrees east.
Two Line Element Set (TLE):
1 38741U 12043B 13136.26355177 .00000152 00000-0 00000+0 0 1688
2 38741 000.0391 096.5868 0001960 336.2609 287.1827 01.00270868 2925
Source: AFSPC
NASA's NSSDC Master Catalog entry for HYLAS 2